[Date Prev][Date Next][Thread Prev][Thread Next] - [Date Index][Thread Index][Author Index]

2 Line ISS Keps 12-17



ISS
1 25544U 98067A   02351.13496881  .00025126  00000-0  33883-3 0  4822
2 25544  51.6351 214.5759 0003437 286.0675 216.4608 15.57641276232500


----
Via the sarex mailing list at AMSAT.ORG courtesy of AMSAT-NA.
To unsubscribe, send "unsubscribe sarex" to Majordomo@amsat.org



AMSAT Top AMSAT Home